Change the Weather History Date:

Thursday, October 3, 2013

  Actual Average Record
Temperature  
Mean Temperature 58 °F -  
Max Temperature 72 °F 66 °F 88 °F (1951)
Min Temperature 45 °F 49 °F 32 °F (1975)
Degree Days  
Heating Degree Days 7    
Growing Degree Days 8 (Base 50)    
Moisture  
Dew Point 53 °F    
Average Humidity 80    
Maximum Humidity 97    
Minimum Humidity 55    
Precipitation  
Precipitation 0.09 in - - ()
Sea Level Pressure  
Sea Level Pressure 30.07 in    
Wind  
Wind Speed 6 mph (SSW)    
Max Wind Speed 8 mph    
Max Gust Speed -    
Visibility 9 miles    
Events Rain    
Averages and records for this station are not official NWS values.
T = Trace of Precipitation, MM = Missing Value Source: NWS Daily Summary

Daily Weather History Graph

Daily Weather History Graph

Search for Another Location

Airport or City:

Trip Planner

Search our weather history database for the weather conditions in past years. The results will help you decide how hot, cold, wet, or windy it might be!

Date:

Astronomy

Oct. 03, 2013 Rise Set
Actual Time 7:16 AM EDT 6:54 PM EDT
Civil Twilight 6:48 AM EDT 7:22 PM EDT
Nautical Twilight 6:15 AM EDT 7:55 PM EDT
Astronomical Twilight 5:43 AM EDT 8:28 PM EDT
Moon 5:47 AM EDT (10/3) 6:02 PM EDT (10/3)
Length of Visible Light 12h 34m
Length of Day
11h 37m
Waning Crescent, 2% of the Moon is Illuminated
Oct 3
Waning Crescent
Oct 4
New
Oct 11
First Quarter
Oct 18
Full
Oct 26
Last Quarter

Hourly Weather History & Observations

Time (EDT) Temp. Windchill Dew Point Humidity Pressure Visibility Wind Dir Wind Speed Gust Speed Precip Events Conditions
12:53 AM 52.0 °F - 48.9 °F 89% 30.12 in 10.0 mi South 8.1 mph - N/A   Clear
1:53 AM 51.1 °F - 48.0 °F 89% 30.12 in 10.0 mi SSW 6.9 mph - N/A   Clear
2:53 AM 48.9 °F - 46.0 °F 90% 30.12 in 10.0 mi South 6.9 mph - N/A   Clear
3:53 AM 48.0 °F - 45.0 °F 89% 30.10 in 10.0 mi SSW 6.9 mph - N/A   Clear
4:53 AM 46.0 °F 41.9 °F 44.1 °F 93% 30.12 in 10.0 mi SSW 8.1 mph - N/A   Clear
5:53 AM 46.0 °F 43.1 °F 43.0 °F 89% 30.12 in 10.0 mi SSW 5.8 mph - N/A   Clear
6:53 AM 45.0 °F 42.6 °F 44.1 °F 97% 30.11 in 10.0 mi SSW 4.6 mph - N/A   Clear
7:53 AM 45.0 °F 41.2 °F 43.0 °F 93% 30.12 in 10.0 mi SSW 6.9 mph - N/A   Clear
8:53 AM 53.1 °F - 46.0 °F 77% 30.13 in 10.0 mi Calm Calm - N/A   Clear
9:53 AM 59.0 °F - 48.0 °F 67% 30.12 in 10.0 mi SSW 6.9 mph - N/A   Clear
10:53 AM 66.0 °F - 52.0 °F 60% 30.10 in 10.0 mi Variable 3.5 mph - N/A   Clear
11:53 AM 68.0 °F - 51.1 °F 55% 30.09 in 10.0 mi WNW 8.1 mph - N/A   Scattered Clouds
12:53 PM 68.0 °F - 52.0 °F 56% 30.07 in 10.0 mi Variable 5.8 mph - N/A   Mostly Cloudy
1:53 PM 68.0 °F - 57.0 °F 68% 30.05 in 10.0 mi Variable 5.8 mph - N/A   Mostly Cloudy
2:53 PM 70.0 °F - 57.0 °F 63% 30.04 in 10.0 mi Variable 4.6 mph - N/A   Overcast
3:53 PM 71.1 °F - 57.9 °F 63% 30.01 in 10.0 mi Variable 3.5 mph - N/A   Mostly Cloudy
4:53 PM 71.1 °F - 59.0 °F 66% 30.01 in 10.0 mi Variable 3.5 mph - N/A   Mostly Cloudy
5:53 PM 70.0 °F - 57.0 °F 63% 30.02 in 10.0 mi WNW 5.8 mph - N/A   Scattered Clouds
6:53 PM 68.0 °F - 57.9 °F 70% 30.02 in 10.0 mi South 5.8 mph - N/A   Scattered Clouds
7:53 PM 64.9 °F - 60.1 °F 84% 30.02 in 10.0 mi SSW 8.1 mph - N/A   Overcast
8:53 PM 64.0 °F - 61.0 °F 90% 30.03 in 10.0 mi SSW 8.1 mph - 0.03 in Rain Light Rain
9:53 PM 63.0 °F - 62.1 °F 97% 30.03 in 8.0 mi Variable 4.6 mph - 0.06 in Rain Light Rain
10:53 PM 63.0 °F - 61.0 °F 93% 30.03 in 3.0 mi SSW 5.8 mph - 0.00 in   Scattered Clouds
11:11 PM 62.6 °F - 60.8 °F 94% 30.03 in 1.8 mi Variable 4.6 mph - N/A   Scattered Clouds
11:26 PM 62.6 °F - 60.8 °F 94% 30.02 in 3.0 mi Variable 3.5 mph - N/A   Mostly Cloudy